Skip Page Navigation
NASA JPL Caltech
NASA Logo - Jet Propulsion Laboratory + View the NASA Portal
+ Near-Earth Object (NEO) Program
Search JPL
JPL Home Earth Solar System Stars & Galaxies Technology
JPL Solar System Dynamics
BODIES ORBITS EPHEMERIDES TOOLS PHYSICAL DATA DISCOVERY FAQ SITE MAP
JPL Small-Body Database Browser
Search: [ help ]  
78383 Philmassey (2002 PM137)
Classification: Main-belt Asteroid          SPK-ID: 2078383
Ephemeris | Orbit Diagram | Orbital Elements | Physical Parameters | Discovery Circumstances | Close-Approach Data ]

[ show orbit diagram ]
Orbital Elements at Epoch 2456800.5 (2014-May-23.0) TDB
Reference: JPL 3 (heliocentric ecliptic J2000)
 Element Value Uncertainty (1-sigma)   Units 
e .06431962552893558 7.9309e-08  
a 2.706362386013539 4.0083e-08 AU
q 2.532290170799552 2.1293e-07 AU
i 5.164253015036495 1.1387e-05 deg
node 349.948865958275 8.9017e-05 deg
peri 60.9151149413901 0.00013287 deg
M 158.3461193018113 9.6064e-05 deg
tp 2456085.209802113900
(2012-Jun-06.70980211)
0.00043173 JED
period 1626.212706534263
4.45
3.6128e-05
9.891e-08
d
yr
n .2213732548967849 4.9181e-09 deg/d
Q 2.880434601227526 4.2662e-08 AU
  Orbit Determination Parameters
   # obs. used (total)      279  
   data-arc span      8456 days (23.15 yr)  
   first obs. used      1991-02-08  
   last obs. used      2014-04-04  
   planetary ephem.      DE431  
   SB-pert. ephem.      SB431-BIG16  
   condition code      0  
   fit RMS      .60774  
   data source      ORB  
   producer      Otto Matic  
   solution date      2014-Apr-17 15:24:45  

Additional Information
 Earth MOID = 1.54576 AU 
 T_jup = 3.356 
[ show covariance matrix ]

Ephemeris | Orbit Diagram | Orbital Elements | Physical Parameters | Discovery Circumstances | Close-Approach Data ]

Physical Parameter Table
Parameter Symbol Value Units Sigma Reference Notes
absolute magnitude H 15.5 mag n/a MPO257356  

78383 Philmassey           Discovered 2002 Aug. 15 by the Lowell Observatory Near-Earth Object Search at the Anderson Mesa Station.
Philip Massey (b. 1952), an astronomer at Lowell Observatory, studies massive stars, young clusters, the initial mass function, and star formation.
NOTE: some special characters may not display properly (any characters within {} are an attempt to place the proper accent above a character)
Reference: 20110615/MPCPages.arcLast Updated: 2013-03-28

[ show close-approach data ]
Ephemeris | Orbit Diagram | Orbital Elements | Physical Parameters | Discovery Circumstances | Close-Approach Data ]
ABOUT SSD CREDITS/AWARDS PRIVACY/COPYRIGHT GLOSSARY LINKS
FirstGov 2014-Apr-23 20:01 UT
(server date/time)  
NASA Home Page
Site Manager:   Donald K. Yeomans
Webmaster  Alan B. Chamberlin